WBANNO,USDM_WEEK,LONGITUDE,LATITUDE,SMVWC_5_CM_MEAN,SMANOM_5_CM_MEAN,SMPERC_5_CM_30COUNTS,SMPERC_5_CM_70COUNTS,SMVWC_10_CM_MEAN,SMANOM_10_CM_MEAN,SMPERC_10_CM_30COUNTS,SMPERC_10_CM_70COUNTS,SMVWC_20_CM_MEAN,SMANOM_20_CM_MEAN,SMPERC_20_CM_30COUNTS,SMPERC_20_CM_70COUNTS,SMVWC_50_CM_MEAN,SMANOM_50_CM_MEAN,SMPERC_50_CM_30COUNTS,SMPERC_50_CM_70COUNTS,SMVWC_100_CM_MEAN,SMANOM_100_CM_MEAN,SMPERC_100_CM_30COUNTS,SMPERC_100_CM_70COUNTS,SMVWC_TOP_CM_MEAN,SMANOM_TOP_CM_MEAN,SMPERC_TOP_CM_30COUNTS,SMPERC_TOP_CM_70COUNTS,SMVWC_COLUMN_CM_MEAN,SMANOM_COLUMN_CM_MEAN,SMPERC_COLUMN_CM_30COUNTS,SMPERC_COLUMN_CM_70COUNTS
53878,20091121,-82.56,35.42,,,,,,,,,,,,,,,,,,,,,,,,,,,,
53878,20091122,-82.56,35.42,,,,,,,,,,,,,,,,,,,,,,,,,,,,
53878,20091123,-82.56,35.42,,,,,,,,,,,,,,,,,,,,,,,,,,,,
53878,20091124,-82.56,35.42,,,,,,,,,,,,,,,,,,,,,,,,,,,,
53878,20091125,-82.56,35.42,,,,,,,,,,,,,,,,,,,,,,,,,,,,
53878,20091126,-82.56,35.42,0.349,0.86,0,1,0.34,1.03,0,1,0.324,0.73,0,1,0.328,-0.05,0,0,0.358,-0.25,0,0,0.344,1,0,1,0.34,0.61,0,1
53878,20091127,-82.56,35.42,0.35,0.86,0,1,0.34,1.03,0,1,0.324,0.73,0,1,0.328,-0.06,0,0,0.358,-0.25,0,0,0.345,0.99,0,1,0.34,0.61,0,1
53878,20091128,-82.56,35.42,0.352,0.86,0,1,0.342,1.04,0,1,0.325,0.76,0,1,0.328,-0.07,0,0,0.358,-0.26,0,0,0.347,0.99,0,1,0.341,0.62,0,1
53878,20091129,-82.56,35.42,0.354,0.86,0,1,0.343,1.04,0,1,0.327,0.79,0,1,0.328,-0.09,0,0,0.358,-0.26,0,0,0.349,0.99,0,1,0.342,0.62,0,1
53878,20091130,-82.56,35.42,0.353,0.83,0,1,0.343,1.01,0,1,0.327,0.8,0,1,0.327,-0.11,0,0,0.359,-0.27,0,0,0.348,0.96,0,1,0.342,0.61,0,1
53878,20091201,-82.56,35.42,0.348,0.79,0,1,0.341,0.96,0,1,0.326,0.78,0,1,0.326,-0.15,0,0,0.359,-0.28,0,0,0.344,0.91,0,1,0.34,0.58,0,1
53878,20091202,-82.56,35.42,0.345,0.75,0,1,0.339,0.92,0,1,0.325,0.77,0,1,0.325,-0.19,0,0,0.359,-0.28,0,0,0.342,0.86,0,1,0.339,0.55,0,1
53878,20091203,-82.56,35.42,0.352,0.82,0,1,0.344,0.99,0,1,0.334,0.95,0,1,0.339,0.12,0,0.119,0.36,-0.25,0,0,0.348,0.92,0,1,0.346,0.66,0,1
53878,20091204,-82.56,35.42,0.356,0.86,0,1,0.348,1.04,0,1,0.339,1.07,0,1,0.357,0.52,0,0.262,0.362,-0.19,0.006,0.006,0.352,0.95,0,1,0.352,0.77,0,1
53878,20091205,-82.56,35.42,0.36,0.89,0,1,0.35,1.07,0,1,0.343,1.15,0,1,0.366,0.73,0,0.405,0.364,-0.11,0.006,0.012,0.355,0.98,0,1,0.357,0.84,0,1
53878,20091206,-82.56,35.42,0.365,0.93,0,1,0.353,1.1,0,1,0.347,1.23,0,1,0.372,0.85,0,0.548,0.367,-0.02,0.006,0.107,0.359,1.01,0,1,0.361,0.89,0,1
53878,20091207,-82.56,35.42,0.369,0.96,0,1,0.355,1.12,0,1,0.35,1.32,0,1,0.376,0.94,0,0.655,0.369,0.07,0.006,0.214,0.362,1.04,0,1,0.364,0.94,0,1
53878,20091208,-82.56,35.42,0.373,0.99,0,1,0.357,1.15,0,1,0.354,1.4,0,1,0.38,1.01,0,0.655,0.372,0.15,0.006,0.226,0.365,1.06,0,1,0.367,0.99,0,1
53878,20091209,-82.56,35.42,0.382,1.06,0,1,0.362,1.21,0,1,0.361,1.57,0,1,0.388,1.18,0,0.714,0.374,0.23,0.006,0.256,0.372,1.14,0,1,0.373,1.1,0,1
53878,20091210,-82.56,35.42,0.381,1.04,0,1,0.361,1.19,0,1,0.362,1.62,0,1,0.392,1.25,0,0.738,0.376,0.31,0.006,0.399,0.371,1.13,0,1,0.374,1.14,0,1
53878,20091211,-82.56,35.42,0.381,1.03,0,1,0.36,1.18,0,1,0.361,1.62,0,1,0.388,1.11,0,0.738,0.378,0.38,0,0.536,0.371,1.12,0,1,0.373,1.14,0,1
53878,20091212,-82.56,35.42,0.378,0.99,0,1,0.36,1.17,0,1,0.361,1.63,0,1,0.385,1.01,0,0.708,0.379,0.42,0,0.673,0.369,1.1,0,1,0.372,1.14,0,1
53878,20091213,-82.56,35.42,0.378,0.98,0,1,0.359,1.16,0,1,0.362,1.64,0,1,0.383,0.95,0,0.565,0.379,0.44,0,0.72,0.369,1.1,0,1,0.372,1.14,0,1
53878,20091214,-82.56,35.42,0.382,1.02,0,1,0.361,1.19,0,1,0.363,1.67,0,1,0.386,0.97,0,0.565,0.38,0.44,0,0.744,0.371,1.15,0,1,0.374,1.19,0,1
53878,20091215,-82.56,35.42,0.384,1.05,0,1,0.362,1.21,0,1,0.365,1.68,0,1,0.389,1,0,0.595,0.381,0.46,0,0.827,0.373,1.18,0,1,0.376,1.23,0,1
53878,20091216,-82.56,35.42,0.381,1.01,0,1,0.36,1.19,0,1,0.362,1.61,0,1,0.385,0.9,0,0.536,0.381,0.47,0,0.827,0.37,1.15,0,1,0.374,1.19,0,1
53878,20091217,-82.56,35.42,0.376,0.97,0,1,0.357,1.15,0,1,0.356,1.45,0,1,0.37,0.53,0,0.393,0.381,0.42,0,0.69,0.366,1.11,0,1,0.368,1.07,0,1
53878,20091218,-82.56,35.42,0.374,0.95,0,1,0.355,1.14,0,1,0.355,1.41,0,1,0.359,0.27,0,0.25,0.38,0.37,0,0.548,0.364,1.1,0,1,0.364,0.99,0,1
53878,20091219,-82.56,35.42,0.377,0.99,0,1,0.354,1.16,0,1,0.354,1.41,0,1,0.354,0.16,0,0.137,0.379,0.3,0,0.405,0.366,1.13,0,1,0.364,0.96,0,1
53878,20091220,-82.56,35.42,0.381,1.03,0,1,0.355,1.22,0,1,0.355,1.44,0,1,0.353,0.11,0,0.137,0.378,0.25,0,0.262,0.368,1.18,0,1,0.364,0.97,0,1
53878,20091221,-82.56,35.42,0.381,1.04,0,1,0.354,1.25,0,1,0.354,1.45,0,1,0.349,0.03,0,0.03,0.377,0.2,0,0.131,0.367,1.2,0,1,0.363,0.94,0,1
53878,20091222,-82.56,35.42,0.382,1.06,0,1,0.354,1.31,0,1,0.355,1.49,0,1,0.347,-0.01,0,0,0.376,0.15,0,0.036,0.368,1.23,0,1,0.363,0.94,0,1
53878,20091223,-82.56,35.42,0.385,1.1,0,1,0.354,1.39,0,1,0.356,1.55,0,1,0.347,-0.02,0,0,0.376,0.11,0,0.006,0.37,1.27,0,1,0.363,0.96,0,1
53878,20091224,-82.56,35.42,0.388,1.14,0,1,0.355,1.47,0,1,0.357,1.61,0,1,0.348,0.01,0,0,0.375,0.08,0,0,0.372,1.33,0,1,0.365,0.99,0,1
53878,20091225,-82.56,35.42,0.395,1.22,0,1,0.358,1.6,0,1,0.36,1.72,0,1,0.354,0.15,0,0.065,0.374,0.05,0,0,0.376,1.42,0,1,0.368,1.08,0,1
53878,20091226,-82.56,35.42,0.404,1.33,0,1,0.366,1.86,0,1,0.37,2.09,0,1,0.37,0.55,0,0.208,0.375,0.1,0,0.137,0.385,1.58,0,1,0.377,1.3,0,1
53878,20091227,-82.56,35.42,0.406,1.36,0,1,0.369,1.98,0,1,0.373,2.23,0,1,0.386,0.96,0,0.351,0.376,0.17,0,0.28,0.387,1.63,0,1,0.382,1.42,0,1
53878,20091228,-82.56,35.42,0.406,1.36,0,1,0.37,2.05,0,1,0.375,2.28,0,1,0.399,1.29,0,0.494,0.377,0.24,0,0.423,0.388,1.66,0,1,0.386,1.51,0,1
53878,20091229,-82.56,35.42,0.406,1.36,0,1,0.371,2.1,0,1,0.375,2.31,0,1,0.406,1.46,0,0.637,0.379,0.33,0,0.565,0.389,1.67,0,1,0.388,1.57,0,1
53878,20091230,-82.56,35.42,0.407,1.37,0,1,0.372,2.12,0,1,0.376,2.32,0,1,0.408,1.52,0,0.75,0.38,0.42,0,0.708,0.389,1.69,0,1,0.389,1.6,0,1
53878,20091231,-82.56,35.42,0.407,1.39,0,1,0.372,2.13,0,1,0.376,2.32,0,1,0.408,1.51,0,0.75,0.382,0.5,0,0.851,0.39,1.71,0,1,0.389,1.62,0,1
53878,20100101,-82.56,35.42,0.405,1.38,0,1,0.371,2.12,0,1,0.374,2.27,0,1,0.404,1.4,0,0.685,0.382,0.56,0,0.994,0.388,1.7,0,1,0.387,1.59,0,1
53878,20100102,-82.56,35.42,0.396,1.28,0,1,0.366,1.97,0,1,0.365,1.98,0,1,0.389,1.04,0,0.542,0.382,0.55,0,0.982,0.381,1.59,0,1,0.38,1.42,0,1
53878,20100103,-82.56,35.42,0.39,1.22,0,1,0.364,1.91,0,1,0.362,1.88,0,1,0.374,0.65,0,0.399,0.381,0.51,0,0.935,0.377,1.54,0,1,0.374,1.3,0,1
53878,20100104,-82.56,35.42,0.385,1.16,0,1,0.363,1.89,0,1,0.361,1.85,0,1,0.361,0.31,0,0.256,0.38,0.47,0,0.839,0.374,1.49,0,1,0.37,1.2,0,1
53878,20100105,-82.56,35.42,0.383,1.14,0,1,0.362,1.91,0,1,0.359,1.83,0,1,0.353,0.1,0,0.113,0.379,0.41,0,0.72,0.372,1.48,0,1,0.368,1.16,0,1
53878,20100106,-82.56,35.42,,,,,0.362,1.92,0,1,0.358,1.81,0,1,0.349,0,0,0,0.378,0.34,0,0.577,,,,,,,,
53878,20100107,-82.56,35.42,,,,,,,,,0.356,1.77,0,1,0.348,-0.06,0.042,0,0.377,0.27,0,0.435,,,,,,,,
53878,20100108,-82.56,35.42,,,,,,,,,0.354,1.7,0,1,0.346,-0.12,0.161,0,0.376,0.22,0,0.292,,,,,,,,
53878,20100109,-82.56,35.42,,,,,,,,,0.351,1.59,0,0.988,0.343,-0.2,0.304,0,0.375,0.17,0,0.167,,,,,,,,
53878,20100110,-82.56,35.42,,,,,,,,,0.344,1.35,0,0.845,0.341,-0.26,0.446,0,0.374,0.14,0,0.071,,,,,,,,
53878,20100111,-82.56,35.42,,,,,,,,,0.335,1,0.03,0.702,0.339,-0.32,0.589,0,0.374,0.1,0,0.024,,,,,,,,
53878,20100112,-82.56,35.42,,,,,,,,,0.331,0.87,0.035,0.653,0.337,-0.38,0.732,0,0.373,0.07,0.006,0.006,,,,,,,,
53878,20100113,-82.56,35.42,,,,,,,,,,,,,0.335,-0.43,0.875,0,0.372,0.04,0.006,0.006,,,,,,,,
53878,20100114,-82.56,35.42,,,,,,,,,,,,,0.333,-0.49,0.976,0,0.372,0.01,0.006,0.006,,,,,,,,
53878,20100115,-82.56,35.42,,,,,,,,,,,,,0.332,-0.54,1,0,0.371,0,0.006,0.006,,,,,,,,
53878,20100116,-82.56,35.42,,,,,,,,,,,,,0.33,-0.59,1,0,0.371,-0.02,0.006,0.006,,,,,,,,
53878,20100117,-82.56,35.42,,,,,,,,,,,,,0.331,-0.57,0.97,0.024,0.37,-0.05,0.006,0.006,,,,,,,,
53878,20100118,-82.56,35.42,,,,,,,,,,,,,0.346,-0.1,0.827,0.167,0.37,-0.02,0.006,0.065,,,,,,,,
53878,20100119,-82.56,35.42,,,,,,,,,,,,,0.359,0.27,0.685,0.31,0.372,0.05,0,0.202,,,,,,,,
53878,20100120,-82.56,35.42,,,,,,,,,,,,,0.367,0.52,0.542,0.452,0.373,0.12,0,0.333,,,,,,,,
53878,20100121,-82.56,35.42,,,,,,,,,,,,,0.373,0.71,0.399,0.595,0.374,0.18,0,0.446,,,,,,,,
53878,20100122,-82.56,35.42,,,,,,,,,,,,,0.382,0.96,0.256,0.738,0.376,0.25,0,0.5,,,,,,,,
53878,20100123,-82.56,35.42,,,,,,,,,0.343,1.28,0,0.942,0.39,1.18,0.113,0.881,0.377,0.32,0,0.595,,,,,,,,
53878,20100124,-82.56,35.42,0.362,1.01,0,1,,,,,0.342,1.26,0,0.943,0.394,1.28,0,0.911,0.379,0.39,0,0.637,,,,,,,,
53878,20100125,-82.56,35.42,0.369,1.1,0,1,0.358,1.77,0.007,0.979,0.349,1.59,0,0.946,0.392,1.19,0,0.899,0.38,0.43,0,0.655,0.363,1.45,0,1,0.369,1.27,0,1
53878,20100126,-82.56,35.42,0.368,1.09,0,1,0.36,1.83,0,1,0.353,1.79,0,0.976,0.396,1.26,0,0.899,0.38,0.43,0,0.607,0.364,1.47,0,1,0.372,1.35,0,1
53878,20100127,-82.56,35.42,0.367,1.06,0,1,0.36,1.8,0,1,0.355,1.87,0,0.994,0.399,1.32,0,0.899,0.38,0.44,0,0.548,0.363,1.44,0,1,0.372,1.35,0,1
53878,20100128,-82.56,35.42,0.367,1.04,0,1,0.359,1.77,0,1,0.355,1.91,0,1,0.399,1.28,0,0.81,0.381,0.44,0.006,0.482,0.363,1.41,0,1,0.372,1.34,0,1
53878,20100129,-82.56,35.42,0.365,1,0,1,0.356,1.69,0,1,0.355,1.9,0,1,0.394,1.15,0,0.671,0.381,0.45,0.006,0.455,0.36,1.35,0,1,0.37,1.27,0,1
53878,20100130,-82.56,35.42,0.363,0.97,0,1,0.354,1.62,0,1,0.354,1.88,0,1,0.39,1.02,0,0.527,0.381,0.44,0.006,0.359,0.359,1.3,0,1,0.369,1.22,0,1
53878,20100131,-82.56,35.42,0.363,0.95,0,1,0.353,1.59,0,1,0.354,1.88,0,1,0.387,0.93,0,0.473,0.38,0.42,0.006,0.317,0.358,1.27,0,1,0.368,1.18,0,1
53878,20100201,-82.56,35.42,0.351,0.76,0,1,0.345,1.31,0,1,0.347,1.54,0,1,0.374,0.58,0.018,0.341,0.379,0.38,0.006,0.24,0.348,1.03,0,1,0.359,0.93,0,1
53878,20100202,-82.56,35.42,0.347,0.7,0,1,0.342,1.2,0,1,0.344,1.4,0,1,0.359,0.17,0.024,0.198,0.378,0.33,0.006,0.144,0.344,0.93,0,1,0.354,0.76,0,1
53878,20100203,-82.56,35.42,0.348,0.71,0,1,0.343,1.2,0,1,0.345,1.43,0,1,0.362,0.27,0.024,0.192,0.377,0.29,0.006,0.072,0.346,0.94,0,1,0.355,0.78,0,1
53878,20100204,-82.56,35.42,0.351,0.74,0,1,0.345,1.25,0,1,0.348,1.52,0,1,0.374,0.61,0.024,0.281,0.377,0.29,0,0.048,0.348,0.97,0,1,0.359,0.88,0,1
53878,20100205,-82.56,35.42,0.353,0.76,0,1,0.348,1.29,0,1,0.35,1.59,0,1,0.386,0.96,0.024,0.423,0.377,0.31,0,0.125,0.351,0.99,0,1,0.363,0.98,0,1
53878,20100206,-82.56,35.42,0.369,0.96,0,1,0.359,1.59,0,1,0.36,2.03,0,1,0.4,1.37,0.024,0.565,0.377,0.34,0,0.244,0.364,1.23,0,1,0.373,1.27,0,1
53878,20100207,-82.56,35.42,0.376,1.05,0,1,0.364,1.72,0,1,0.366,2.26,0,1,0.415,1.78,0.024,0.708,0.378,0.38,0,0.375,0.37,1.33,0,1,0.38,1.45,0,1
53878,20100208,-82.56,35.42,0.379,1.08,0,1,0.367,1.8,0,1,0.369,2.39,0,1,0.43,2.19,0.006,0.851,0.379,0.43,0,0.5,0.373,1.36,0,1,0.385,1.58,0,1
53878,20100209,-82.56,35.42,0.382,1.1,0,1,0.369,1.85,0,1,0.37,2.47,0,1,0.443,2.55,0,0.994,0.381,0.49,0,0.619,0.376,1.39,0,1,0.389,1.69,0,1
53878,20100210,-82.56,35.42,0.384,1.11,0,1,0.37,1.88,0,1,0.372,2.53,0,1,0.444,2.58,0,1,0.382,0.53,0,0.738,0.377,1.4,0,1,0.39,1.72,0,1
53878,20100211,-82.56,35.42,0.385,1.1,0,1,0.37,1.85,0,1,0.371,2.52,0,1,0.442,2.51,0,1,0.382,0.55,0,0.851,0.377,1.38,0,1,0.39,1.69,0,1
53878,20100212,-82.56,35.42,0.384,1.08,0,1,0.369,1.82,0,1,0.371,2.51,0,1,0.435,2.32,0,0.994,0.383,0.56,0,0.869,0.377,1.35,0,1,0.388,1.64,0,1
53878,20100213,-82.56,35.42,0.37,0.87,0,1,0.359,1.54,0,1,0.362,2.13,0,1,0.424,2,0,0.964,0.382,0.55,0,0.815,0.365,1.11,0,1,0.38,1.38,0,1
53878,20100214,-82.56,35.42,0.363,0.76,0,1,0.355,1.4,0,1,0.357,1.94,0,1,0.411,1.65,0,0.821,0.382,0.54,0,0.726,0.359,0.99,0,1,0.374,1.2,0,1
53878,20100215,-82.56,35.42,0.359,0.7,0,1,0.351,1.3,0,1,0.354,1.83,0,1,0.398,1.27,0,0.679,0.382,0.51,0,0.601,0.355,0.92,0,1,0.369,1.07,0,1
53878,20100216,-82.56,35.42,0.357,0.67,0,1,0.35,1.25,0,1,0.354,1.8,0,1,0.389,1.02,0,0.619,0.381,0.48,0,0.482,0.353,0.89,0,1,0.366,0.99,0,1
53878,20100217,-82.56,35.42,0.353,0.62,0,1,0.347,1.17,0,1,0.352,1.7,0,1,0.379,0.75,0,0.601,0.38,0.44,0,0.363,0.35,0.83,0,1,0.362,0.89,0,1
53878,20100218,-82.56,35.42,0.349,0.57,0,1,0.347,1.19,0,1,0.35,1.64,0,1,0.369,0.46,0,0.458,0.379,0.4,0,0.226,0.347,0.79,0,1,0.359,0.8,0,1
53878,20100219,-82.56,35.42,,,,,0.347,1.18,0,0.968,0.35,1.6,0,1,0.363,0.29,0,0.321,0.378,0.36,0,0.107,,,,,,,,
53878,20100220,-82.56,35.42,,,,,0.348,1.18,0,0.968,0.35,1.57,0,1,0.361,0.23,0,0.208,0.377,0.32,0,0.042,,,,,,,,
53878,20100221,-82.56,35.42,,,,,0.347,1.16,0,0.968,0.349,1.55,0,1,0.361,0.23,0,0.208,0.376,0.28,0,0,,,,,,,,
53878,20100222,-82.56,35.42,,,,,0.347,1.14,0,0.968,0.349,1.53,0,1,0.361,0.23,0,0.208,0.375,0.26,0,0,,,,,,,,
53878,20100223,-82.56,35.42,,,,,0.347,1.13,0,0.968,0.35,1.52,0,1,0.359,0.2,0,0.214,0.375,0.25,0,0,,,,,,,,
53878,20100224,-82.56,35.42,,,,,0.346,1.1,0,0.968,0.349,1.49,0,1,0.358,0.18,0,0.173,0.374,0.24,0,0,,,,,,,,
53878,20100225,-82.56,35.42,0.331,0.38,0.022,0.655,0.343,0.99,0,0.968,0.349,1.47,0,1,0.357,0.17,0,0.173,0.373,0.22,0,0,0.336,0.62,0.007,0.964,0.351,0.62,0,0.971
53878,20100226,-82.56,35.42,0.33,0.38,0.018,0.632,0.341,0.94,0,1,0.349,1.44,0,1,0.356,0.15,0,0.173,0.373,0.2,0.006,0.006,0.336,0.61,0.006,0.969,0.35,0.6,0,0.963
53878,20100227,-82.56,35.42,0.331,0.4,0,0.619,0.339,0.88,0,1,0.349,1.4,0,1,0.354,0.11,0,0.173,0.372,0.19,0.006,0.006,0.335,0.59,0,0.958,0.349,0.57,0,0.935
53878,20100228,-82.56,35.42,0.328,0.35,0,0.542,0.338,0.84,0,1,0.348,1.34,0,0.994,0.352,0.06,0,0.173,0.372,0.17,0.006,0.006,0.333,0.55,0,0.833,0.348,0.52,0,0.804
53878,20100301,-82.56,35.42,0.325,0.3,0,0.524,0.336,0.79,0,1,0.347,1.29,0,0.994,0.351,0.02,0,0.173,0.371,0.15,0.006,0.006,0.33,0.5,0,0.69,0.346,0.48,0,0.661
53878,20100302,-82.56,35.42,0.319,0.21,0,0.381,0.333,0.71,0,1,0.345,1.19,0,0.994,0.348,-0.07,0.06,0.083,0.371,0.14,0.006,0.006,0.326,0.41,0,0.548,0.343,0.38,0,0.518
53878,20100303,-82.56,35.42,0.315,0.15,0,0.238,0.331,0.66,0,1,0.344,1.11,0,0.994,0.344,-0.18,0.196,0,0.37,0.11,0.006,0.006,0.323,0.35,0,0.405,0.341,0.31,0,0.375
53878,20100304,-82.56,35.42,0.312,0.12,0,0.173,0.329,0.62,0,1,0.343,1.05,0,0.994,0.342,-0.26,0.339,0,0.37,0.09,0.006,0.006,0.321,0.31,0,0.28,0.339,0.27,0,0.232
53878,20100305,-82.56,35.42,0.312,0.12,0,0.196,0.33,0.64,0,1,0.342,1.04,0,0.994,0.34,-0.31,0.482,0,0.37,0.07,0,0,0.321,0.32,0,0.256,0.339,0.27,0,0.202
53878,20100306,-82.56,35.42,0.313,0.15,0,0.256,0.331,0.7,0,1,0.343,1.07,0,0.994,0.34,-0.3,0.542,0,0.369,0.05,0,0,0.322,0.37,0,0.298,0.339,0.32,0,0.256
53878,20100307,-82.56,35.42,0.316,0.21,0,0.375,0.333,0.76,0,1,0.345,1.12,0,1,0.342,-0.22,0.542,0.018,0.369,0.04,0,0,0.324,0.43,0,0.423,0.341,0.39,0,0.387
53878,20100308,-82.56,35.42,0.318,0.25,0,0.399,0.334,0.81,0,1,0.346,1.16,0,1,0.344,-0.14,0.542,0.024,0.368,0.03,0,0,0.326,0.48,0,0.565,0.342,0.45,0,0.53
53878,20100309,-82.56,35.42,0.32,0.29,0,0.399,0.335,0.84,0,1,0.347,1.19,0,1,0.345,-0.08,0.482,0.024,0.368,0.02,0,0,0.328,0.52,0,0.708,0.343,0.5,0,0.673
53878,20100310,-82.56,35.42,0.322,0.31,0,0.399,0.336,0.87,0,1,0.348,1.22,0,1,0.346,-0.03,0.345,0.024,0.368,0.01,0,0,0.329,0.55,0,0.851,0.344,0.55,0,0.815
53878,20100311,-82.56,35.42,0.322,0.32,0,0.399,0.336,0.88,0,1,0.348,1.24,0,1,0.347,0.02,0.202,0.024,0.368,0.01,0,0,0.329,0.56,0,0.964,0.344,0.58,0,0.958
53878,20100312,-82.56,35.42,0.323,0.34,0,0.405,0.336,0.89,0,1,0.349,1.27,0,1,0.347,0.06,0.06,0.024,0.367,0,0,0,0.33,0.58,0,0.964,0.345,0.61,0,1
53878,20100313,-82.56,35.42,0.326,0.4,0,0.405,0.339,0.95,0,1,0.351,1.34,0,1,0.354,0.35,0,0.107,0.367,0.01,0,0,0.333,0.66,0,0.964,0.348,0.73,0,1
53878,20100314,-82.56,35.42,0.331,0.49,0,0.411,0.342,1.05,0,1,0.353,1.4,0,1,0.367,0.88,0,0.232,0.369,0.08,0,0.119,0.337,0.76,0,0.964,0.352,0.91,0,1
53878,20100315,-82.56,35.42,0.335,0.56,0,0.53,0.345,1.12,0,1,0.354,1.45,0,1,0.377,1.28,0,0.369,0.37,0.17,0,0.262,0.34,0.83,0,0.964,0.356,1.05,0,1
53878,20100316,-82.56,35.42,0.339,0.63,0,0.673,0.346,1.17,0,1,0.355,1.48,0,1,0.382,1.5,0,0.512,0.372,0.27,0,0.405,0.342,0.9,0,0.964,0.359,1.16,0,1
53878,20100317,-82.56,35.42,0.341,0.69,0,0.815,0.347,1.22,0,1,0.355,1.51,0,1,0.385,1.66,0,0.655,0.374,0.36,0,0.548,0.344,0.94,0,0.964,0.361,1.24,0,1
53878,20100318,-82.56,35.42,0.344,0.73,0,0.958,0.348,1.25,0,1,0.356,1.53,0,1,0.387,1.76,0,0.798,0.375,0.44,0,0.69,0.346,0.98,0,0.976,0.362,1.3,0,1
53878,20100319,-82.56,35.42,0.342,0.72,0,0.976,0.348,1.25,0,1,0.356,1.51,0,1,0.389,1.84,0,0.887,0.376,0.52,0,0.833,0.345,0.96,0,1,0.362,1.31,0,1
53878,20100320,-82.56,35.42,0.335,0.62,0,0.839,0.344,1.13,0,1,0.353,1.41,0,1,0.382,1.6,0,0.81,0.377,0.57,0,0.887,0.34,0.84,0,1,0.358,1.19,0,1
53878,20100321,-82.56,35.42,0.327,0.5,0,0.696,0.338,0.98,0,1,0.349,1.29,0,0.994,0.367,1.04,0,0.667,0.376,0.55,0,0.768,0.333,0.7,0,0.929,0.352,0.98,0,0.988
53878,20100322,-82.56,35.42,0.325,0.46,0,0.625,0.336,0.9,0,1,0.348,1.23,0,0.994,0.358,0.71,0,0.571,0.375,0.5,0,0.625,0.33,0.64,0,0.869,0.348,0.87,0,0.988
53878,20100323,-82.56,35.42,0.326,0.49,0,0.625,0.336,0.89,0,1,0.349,1.22,0,0.994,0.358,0.79,0,0.571,0.374,0.45,0,0.482,0.331,0.65,0,0.869,0.349,0.88,0,0.988
53878,20100324,-82.56,35.42,0.328,0.54,0,0.625,0.337,0.89,0,1,0.349,1.22,0,0.994,0.359,0.86,0,0.571,0.373,0.42,0,0.339,0.332,0.67,0,0.869,0.349,0.9,0,0.988
53878,20100325,-82.56,35.42,0.33,0.57,0,0.625,0.337,0.88,0,1,0.35,1.23,0,0.994,0.36,0.93,0,0.571,0.373,0.38,0,0.196,0.333,0.69,0,0.869,0.35,0.92,0,0.988
53878,20100326,-82.56,35.42,0.331,0.61,0,0.649,0.337,0.87,0,1,0.35,1.23,0,0.994,0.36,1,0,0.625,0.372,0.36,0,0.054,0.334,0.71,0,0.869,0.35,0.95,0,0.988
53878,20100327,-82.56,35.42,0.332,0.65,0,0.786,0.337,0.88,0,1,0.351,1.24,0,0.994,0.361,1.05,0,0.762,0.372,0.34,0,0,0.335,0.74,0,0.869,0.351,0.98,0,0.988
53878,20100328,-82.56,35.42,0.334,0.7,0,0.929,0.338,0.9,0,1,0.351,1.27,0,1,0.361,1.09,0,0.905,0.372,0.33,0,0,0.336,0.78,0,0.94,0.351,1.02,0,1
53878,20100329,-82.56,35.42,0.338,0.77,0,1,0.34,0.94,0,1,0.353,1.33,0,1,0.364,1.32,0,1,0.371,0.33,0,0,0.339,0.85,0,1,0.353,1.11,0,1
53878,20100330,-82.56,35.42,0.338,0.78,0,1,0.339,0.94,0,1,0.353,1.35,0,1,0.364,1.35,0,1,0.371,0.33,0,0.006,0.338,0.86,0,1,0.353,1.11,0,1
53878,20100331,-82.56,35.42,0.336,0.76,0,1,0.338,0.93,0,1,0.352,1.36,0,1,0.363,1.34,0,1,0.371,0.33,0,0.03,0.337,0.86,0,1,0.352,1.1,0,1
53878,20100401,-82.56,35.42,0.334,0.75,0,1,0.337,0.92,0,1,0.352,1.37,0,1,0.362,1.32,0,1,0.371,0.33,0,0.054,0.336,0.85,0,1,0.351,1.08,0,1
53878,20100402,-82.56,35.42,0.33,0.71,0,0.976,0.336,0.91,0,1,0.351,1.38,0,1,0.361,1.27,0,1,0.371,0.33,0,0.06,0.333,0.83,0,1,0.35,1.04,0,1
53878,20100403,-82.56,35.42,0.325,0.65,0,0.833,0.334,0.87,0,1,0.351,1.38,0,1,0.36,1.24,0,1,0.371,0.33,0,0.06,0.329,0.78,0,0.952,0.348,0.99,0,1
53878,20100404,-82.56,35.42,0.318,0.57,0,0.69,0.331,0.83,0,1,0.35,1.36,0,1,0.36,1.23,0,0.97,0.371,0.33,0,0.06,0.324,0.71,0,0.81,0.346,0.92,0,0.952
53878,20100405,-82.56,35.42,0.303,0.38,0,0.548,0.323,0.69,0,0.869,0.347,1.27,0,1,0.354,0.93,0,0.833,0.37,0.33,0,0.06,0.313,0.54,0,0.667,0.34,0.74,0,0.81
53878,20100406,-82.56,35.42,0.288,0.19,0.071,0.405,0.314,0.53,0,0.726,0.344,1.17,0,1,0.348,0.59,0,0.69,0.37,0.32,0,0.054,0.301,0.35,0,0.524,0.333,0.55,0,0.667
53878,20100407,-82.56,35.42,0.272,-0.01,0.214,0.262,0.304,0.36,0,0.583,0.341,1.06,0,1,0.344,0.39,0,0.548,0.37,0.29,0,0.03,0.288,0.16,0.071,0.381,0.326,0.36,0,0.524
53878,20100408,-82.56,35.42,0.255,-0.23,0.357,0.119,0.292,0.16,0.089,0.44,0.337,0.94,0,1,0.341,0.23,0,0.405,0.369,0.26,0,0.006,0.273,-0.05,0.214,0.238,0.319,0.17,0.06,0.381
53878,20100409,-82.56,35.42,0.243,-0.36,0.417,0,0.281,-0.03,0.185,0.298,0.332,0.82,0,0.929,0.339,0.13,0,0.262,0.368,0.22,0,0,0.262,-0.21,0.274,0.095,0.313,0.02,0.113,0.238
53878,20100410,-82.56,35.42,0.236,-0.44,0.47,0,0.272,-0.18,0.238,0.155,0.328,0.7,0,0.786,0.337,0.03,0,0.119,0.368,0.19,0,0,0.254,-0.31,0.327,0,0.308,-0.1,0.113,0.095
53878,20100411,-82.56,35.42,0.229,-0.52,0.613,0,0.264,-0.32,0.375,0.012,0.323,0.59,0,0.643,0.335,-0.05,0.012,0.006,0.367,0.15,0,0,0.246,-0.42,0.47,0,0.304,-0.21,0.149,0
53878,20100412,-82.56,35.42,0.222,-0.59,0.756,0,0.257,-0.44,0.518,0,0.319,0.48,0,0.5,0.333,-0.13,0.119,0,0.367,0.12,0,0,0.239,-0.51,0.613,0,0.3,-0.31,0.292,0
53878,20100413,-82.56,35.42,0.215,-0.64,0.827,0,0.25,-0.56,0.661,0,0.314,0.37,0,0.357,0.332,-0.2,0.262,0,0.366,0.09,0,0,0.232,-0.59,0.756,0,0.296,-0.4,0.435,0
53878,20100414,-82.56,35.42,0.21,-0.69,0.827,0,0.243,-0.66,0.804,0,0.309,0.25,0,0.214,0.33,-0.27,0.405,0,0.366,0.06,0,0,0.226,-0.67,0.827,0,0.292,-0.49,0.577,0
53878,20100415,-82.56,35.42,0.205,-0.72,0.827,0,0.238,-0.74,0.857,0,0.304,0.13,0.06,0.071,0.329,-0.33,0.548,0,0.366,0.03,0,0,0.221,-0.72,0.827,0,0.288,-0.56,0.661,0
53878,20100416,-82.56,35.42,0.195,-0.8,0.911,0,0.231,-0.84,0.905,0,0.298,0,0.202,0,0.327,-0.4,0.69,0,0.365,0,0,0,0.213,-0.82,0.911,0,0.283,-0.66,0.75,0
53878,20100417,-82.56,35.42,0.182,-0.93,1,0,0.222,-0.97,0.994,0,0.291,-0.17,0.345,0,0.326,-0.45,0.833,0,0.365,-0.02,0,0,0.202,-0.95,1,0,0.277,-0.79,0.893,0
53878,20100418,-82.56,35.42,0.171,-1.03,1,0,0.212,-1.1,1,0,0.282,-0.37,0.488,0,0.324,-0.51,0.964,0,0.364,-0.05,0,0,0.192,-1.08,1,0,0.271,-0.92,1,0
53878,20100419,-82.56,35.42,0.16,-1.13,1,0,0.203,-1.23,1,0,0.272,-0.59,0.631,0,0.322,-0.56,1,0,0.364,-0.08,0,0,0.181,-1.2,1,0,0.264,-1.04,1,0
53878,20100420,-82.56,35.42,0.15,-1.22,1,0,0.193,-1.35,1,0,0.261,-0.82,0.774,0,0.32,-0.62,1,0,0.364,-0.1,0.006,0,0.171,-1.31,1,0,0.258,-1.16,1,0
53878,20100421,-82.56,35.42,0.141,-1.28,1,0,0.185,-1.45,1,0,0.251,-1.04,0.917,0,0.318,-0.67,1,0,0.363,-0.13,0.048,0,0.163,-1.4,1,0,0.252,-1.26,1,0
53878,20100422,-82.56,35.42,0.134,-1.33,1,0,0.179,-1.52,1,0,0.241,-1.22,1,0,0.316,-0.72,1,0,0.363,-0.15,0.143,0,0.156,-1.46,1,0,0.247,-1.33,1,0
53878,20100423,-82.56,35.42,0.129,-1.36,1,0,0.174,-1.57,1,0,0.232,-1.38,1,0,0.314,-0.77,1,0,0.362,-0.17,0.208,0,0.151,-1.51,1,0,0.242,-1.39,1,0
53878,20100424,-82.56,35.42,0.124,-1.38,1,0,0.169,-1.61,1,0,0.224,-1.51,1,0,0.311,-0.82,1,0,0.362,-0.18,0.244,0,0.147,-1.54,1,0,0.238,-1.43,1,0
53878,20100425,-82.56,35.42,0.127,-1.31,0.946,0,0.172,-1.53,0.976,0.018,0.22,-1.56,0.982,0.012,0.309,-0.87,1,0,0.362,-0.2,0.321,0,0.15,-1.46,0.952,0.018,0.238,-1.39,0.976,0
53878,20100426,-82.56,35.42,0.142,-1.13,0.804,0,0.19,-1.22,0.833,0.161,0.229,-1.33,0.839,0.071,0.306,-0.9,1,0,0.361,-0.21,0.44,0,0.166,-1.22,0.81,0.018,0.246,-1.19,0.833,0
53878,20100427,-82.56,35.42,0.156,-0.96,0.661,0,0.205,-0.94,0.69,0.202,0.238,-1.08,0.696,0.071,0.304,-0.92,1,0,0.361,-0.22,0.548,0,0.181,-0.99,0.667,0.018,0.253,-1,0.69,0
53878,20100428,-82.56,35.42,0.169,-0.81,0.518,0,0.22,-0.68,0.548,0.202,0.248,-0.85,0.554,0.071,0.303,-0.92,1,0,0.36,-0.22,0.607,0,0.195,-0.79,0.524,0.018,0.26,-0.82,0.548,0
53878,20100429,-82.56,35.42,0.181,-0.66,0.375,0,0.233,-0.45,0.405,0.202,0.257,-0.62,0.411,0.071,0.301,-0.91,1,0,0.36,-0.22,0.613,0,0.207,-0.6,0.381,0.018,0.266,-0.65,0.405,0
53878,20100430,-82.56,35.42,0.191,-0.54,0.351,0,0.244,-0.24,0.262,0.202,0.266,-0.39,0.268,0.071,0.3,-0.88,1,0,0.36,-0.23,0.655,0,0.217,-0.43,0.286,0.018,0.272,-0.5,0.321,0
53878,20100501,-82.56,35.42,0.198,-0.44,0.351,0,0.252,-0.07,0.226,0.202,0.275,-0.16,0.125,0.071,0.3,-0.85,1,0,0.359,-0.24,0.738,0,0.225,-0.3,0.286,0.018,0.277,-0.36,0.321,0
53878,20100502,-82.56,35.42,0.197,-0.44,0.405,0,0.253,-0.03,0.25,0.185,0.28,-0.01,0.107,0.06,0.3,-0.81,1,0,0.359,-0.24,0.804,0,0.225,-0.27,0.333,0,0.278,-0.32,0.345,0
53878,20100503,-82.56,35.42,0.185,-0.54,0.548,0,0.238,-0.22,0.387,0.042,0.273,-0.12,0.244,0,0.3,-0.77,1,0,0.358,-0.25,0.827,0,0.212,-0.42,0.47,0,0.271,-0.43,0.488,0
53878,20100504,-82.56,35.42,0.19,-0.5,0.548,0,0.242,-0.17,0.387,0.143,0.275,-0.07,0.244,0.137,0.3,-0.74,1,0,0.358,-0.25,0.851,0,0.216,-0.37,0.47,0.024,0.273,-0.39,0.488,0
53878,20100505,-82.56,35.42,0.192,-0.47,0.548,0,0.243,-0.14,0.387,0.286,0.278,-0.02,0.244,0.28,0.3,-0.71,1,0,0.358,-0.26,0.893,0,0.218,-0.34,0.47,0.024,0.274,-0.36,0.488,0
53878,20100506,-82.56,35.42,0.194,-0.44,0.548,0,0.245,-0.11,0.387,0.286,0.28,0.02,0.244,0.405,0.3,-0.68,1,0,0.357,-0.26,0.923,0,0.219,-0.31,0.47,0.024,0.275,-0.33,0.488,0
53878,20100507,-82.56,35.42,0.197,-0.4,0.429,0,0.247,-0.07,0.387,0.286,0.282,0.06,0.244,0.411,0.3,-0.65,1,0,0.357,-0.25,0.917,0,0.222,-0.28,0.423,0.024,0.277,-0.3,0.429,0
53878,20100508,-82.56,35.42,0.2,-0.37,0.327,0,0.252,0,0.28,0.286,0.284,0.11,0.244,0.411,0.3,-0.61,1,0,0.357,-0.25,0.929,0,0.226,-0.24,0.28,0.024,0.279,-0.25,0.286,0